Probability
0 0 0 0 0 0 0 0 0 0 0 0 0 0 0 0 0 0 0 0 0 0 0 0 0 0 0 0 0 0 0 0 0 0 0 0 0 0 0 0 0 0 0
0 0 0 0 0 0 0 0 0 0 0 0 0 0 0 0 0 0 0 0 0 0 0 0 0 0 0 0 0 0 0 0 0 0 0 0 0 0 0 0 0 0 0
0 0 0 0 0 0 0 0 0 0 0 0 0 0 0 0 0 0 0 0 0 0 0 0 0 0 0 0 0 0 0 0 0 0 0 0 0 0 0 0 0 0 0
0 0 0 0 0 0 0 0 0 0 0 0 0 0 0 0 0 0 0 0 0 0 0 0 0 0 0 0 0 0 0 0 0 0 0 0 0 0 0 0 0 0 0
0 0 0 0 0 0 0 0 0 0 0 0 0 0 0 0 0 0 0 0 0 0 0 0 0 0 0 0 0 0 0 0 0 0 0 0 0 0 0 0 0 0 0
0 0 0 0 0 0 0 0 0 0 0 0 0 0 0 0 0 0 0 0 0 0 0 0 0 0 0 0 0 0 0 0 0 0 0 0 0 0 0 0 0 0 0
0 0 0 0 0 0 0 0 0 0 0 0 0 0 0 0 0 0 0 0 0 0 0 0 0 0 0 0 0 0 0 0 0 0 0 0 0 0 0 0 0 0 0
0 0 0 0 0 0 0 0 0 0 0 0 0 0 0 0 0 0 0 0 0 0 0 0 0 0 0 0 0 0 0 0 0 0 0 0 0 0 0 0 0 0 0
0 0 0 0 0 0 0 0 0 0 0 0 0 0 0 0 0 0 0 0 0 0 0 0 0 0 0 0 0 0 0 0 0 0 0 0 0 0 0 0 0 0 0
0 0 0 0 0 0 0 0 0 0 0 0 0 0 0 0 0 0 0 0 0 0 0 0 0 0 0 0 0 0 0 0 0 0 0 0 0 0 0 0 0 0 0
0 0 0 0 0 0 0 0 0 0 0 0 0 0 0 0 0 0 0 0 0 0 0 0 0 0 0 0 0 0 0 0 0 0 0 0 0 0 0 0 0 0 0
0 0 0 0 0 0 0 0 0 0 0 0 0 0 0 0 0 0 0 0 0 0 0 0 0 0 0 0 0 0 0 0 0 0 0 0 0 0 0 0 0 0 0
0 0 0 0 0 0 0 0 0 0 0 0 0 0 0 0 0 0 0 0 0 0 0 0 0 0 0 0 0 0 0 0 0 0 0 0 0 0 0 0 0 0 0
0 0 0 0 0 0 0 0 0 0 0 0 0 0 0 0 0 0 0 0 0 0 0 0 0 0 0 0 0 0 0 0 0 0 0 0 0 0 0 0 0 0 0
0 0 0 0 0 0 0 0 0 0 0 0 0 0 0 0 0 0 0 0 0 0 0 0 0 0 0 0 0 0 0 0 0 0 0 0 0 0 0 0 0 0 0
0 0 0 0 0 0 0 0 0 0 0 0 0 0 0 0 0 0 0 0 0 0 0 0 0 0 0 0 0 0 0 0 0 0 0 0 0 0 0 0 0 0 0
0 0 0 0 0 0 0 0 0 0 0 0 0 0 0 0 0 0 0 0 0 0 0 0 0 0 0 0 0 0 0 0 0 0 0 0 0 0 0 0 0 0 0
0 0 0 0 0 0 0 0 0 0 0 0 0 0 0 0 0 0 0 0 0 0 0 0 0 0 0 0 0 0 0 0 0 0 0 0 0 0 0 0 0 0 0
0 0 0 0 0 0 0 0 0 0 0 0 0 0 0 0 0 0 0 0 0 0 0 0 0 0 0 0 0 0 0 0 0 0 0 0 0 0 0 0 0 0 0
0 0 0 0 0 0 0 0 0 0 0 0 0 0 0 0 0 0 0 0 0 0 0 0 0 0 0 0 0 0 0 0 0 0 0 0 0 0 0 0 0 0 0
0 0 0 0 0 0 0 0 0 0 0 0 0 0 0 0 0 0 0 0 0 0 0 0 0 0 0 0 0 0 0 0 0 0 0 0 0 0 0 0 0 0 0
0 0 0 0 0 0 0 0 0 0 0 0 0 0 0 0 0 0 0 0 0 0 0 0 0 0 0 0 0 0 0 0 0 0 0 0 0 0 0 0 0 0 0
0 0 0 0 0 0 0 0 0 0 0 0 0 0 0 0 0 0 0 0 0 0 0 0 0 0 0 0 0 0 0 0 0 0 0 0 0 0 0 0 0 0 0
0 0 0 0 0 0 0 0 0 0 0 0 0 0 0 0 0 0 0 0 0 0 0 0 0 0 0 0 0 0 0 0 0 0 0 0 0 0 0 0 0 0 0
0 0 0 0 0 0 0 0 0 0 0 0 0 0 0 0 0 0 0 0 0 0 0 0 0 0 0 0 0 0 0 0 0 0 0 0 0 0 0 0 0 0 0
0 0 0 0 0 0 0 0 0 0 0 0 0 0 0 0 0 0 0 0 0 0 0 0 0 0 0 0 0 0 0 0 0 0 0 0 0 0 0 0 0 0 0
Wind_Speed
2 2 1 1 2 1 1 1 1 1 1 1 1 1 0 0 0 0 0 1 1 1 1 1 2 2 2 2 2 2 2 3 6 5 3 4 4 5 6 5 6 6 7
2 2 2 1 1 1 1 1 1 1 1 1 1 1 0 0 0 0 1 1 1 2 2 2 3 2 2 2 2 3 3 3 5 7 5 4 5 5 6 6 7 6 6
2 2 2 2 2 2 2 1 1 1 1 1 1 1 1 0 0 1 1 1 2 2 2 3 3 2 3 3 3 3 3 4 4 5 7 5 5 5 6 6 6 5 7
2 2 2 2 2 2 2 1 1 1 1 1 1 1 1 0 0 1 1 2 2 2 3 3 3 3 4 3 3 4 4 4 4 5 6 6 5 5 4 5 7 5 6
3 2 2 1 1 1 1 1 1 1 1 1 1 1 0 1 1 1 2 2 2 3 3 3 4 4 4 4 4 4 4 4 4 5 6 6 6 5 5 5 7 7 7
3 2 2 1 1 1 1 1 1 0 0 0 1 1 1 1 2 2 2 2 3 3 4 4 4 4 5 6 7 7 6 6 6 6 6 7 8 7 6 6 7 8 8
2 2 2 2 1 1 1 1 1 1 0 1 1 1 1 2 3 3 3 3 3 3 4 4 4 4 4 4 6 8 8 9 9 8 8 8 8 7 7 8 8 9 10
2 2 2 2 2 1 1 1 1 1 1 1 2 2 2 3 3 4 4 3 4 4 4 4 5 5 5 4 4 5 6 7 8 7 7 8 7 6 6 8 9 9 9
3 2 2 2 2 2 2 2 2 1 1 2 2 2 3 4 4 4 4 3 4 5 5 4 5 5 7 7 5 6 7 7 8 9 11 11 13 12 9 6 6 6 8
3 3 2 2 2 3 3 2 1 1 2 2 2 2 3 3 4 4 4 2 4 4 4 4 5 6 8 8 5 5 7 7 6 7 8 9 8 9 10 6 5 6 7
2 2 2 2 3 3 2 1 1 1 1 2 2 3 3 3 5 5 5 3 3 4 4 4 4 7 9 9 8 5 8 8 5 6 6 6 5 5 5 5 5 6 7
2 2 2 2 2 1 1 1 1 1 1 2 2 3 3 3 4 5 6 6 5 4 4 4 4 8 9 9 7 8 10 8 4 5 5 5 5 5 5 5 6 7 7
2 2 2 2 1 1 2 2 1 1 2 2 2 3 3 3 3 5 6 7 7 4 4 6 7 8 8 6 8 10 7 4 4 5 6 6 5 6 5 5 6 6 8
3 2 2 2 2 1 2 2 2 2 3 3 3 4 4 3 3 2 3 4 5 5 4 5 7 7 6 6 5 5 4 4 4 6 6 6 5 5 5 5 5 5 6
3 2 2 2 2 2 2 3 3 4 4 4 4 3 3 4 5 5 3 3 3 3 3 2 3 3 4 4 4 4 4 4 4 5 5 6 6 6 6 5 4 5 5
3 2 2 2 2 2 2 2 4 5 5 7 6 5 5 6 8 7 7 8 7 6 3 3 4 4 4 5 5 5 4 4 5 5 5 6 6 6 6 5 5 5 7
4 3 2 2 2 2 2 2 3 4 6 7 8 8 8 8 8 8 8 8 7 5 3 4 4 5 5 5 5 5 5 5 5 5 6 6 6 6 6 6 6 6 7
3 3 3 3 3 3 3 3 2 3 3 4 5 8 8 9 9 9 8 5 4 4 4 5 5 5 5 5 5 5 5 5 5 5 6 6 6 6 6 6 6 7 7
3 3 3 2 2 2 2 2 3 3 4 4 3 4 5 7 8 8 5 3 4 5 5 5 5 5 5 5 5 5 5 5 6 5 6 6 6 6 7 7 7 8 7
3 4 3 2 2 2 2 3 3 3 4 4 4 4 2 2 3 4 3 4 4 5 5 5 5 5 5 5 5 5 5 6 6 6 6 6 6 6 7 8 7 7 7
3 3 4 3 3 3 3 3 4 4 4 4 5 5 5 3 4 4 4 4 4 5 5 5 5 5 5 5 5 5 7 6 6 6 6 6 6 6 6 7 7 7 7
2 2 3 3 3 3 3 4 4 4 5 5 5 4 6 4 4 5 5 5 5 5 5 5 5 5 5 5 5 6 6 7 6 6 6 6 6 6 6 6 6 6 7
3 3 3 3 3 4 4 4 4 5 5 5 4 4 4 4 5 5 5 5 5 5 4 4 5 6 5 5 5 6 7 7 7 6 7 7 6 6 6 6 7 8 8
3 3 3 3 3 4 4 4 4 4 5 4 4 5 5 5 5 6 5 5 5 5 5 5 6 7 9 7 6 6 6 7 7 6 8 7 7 6 6 6 7 8 8
3 3 3 3 4 4 4 4 4 4 5 5 5 5 5 5 5 5 5 5 5 6 6 6 5 6 8 9 9 8 9 11 10 7 6 6 7 7 7 7 7 7 7
3 3 3 3 3 4 4 4 5 5 5 5 5 5 5 5 5 5 5 5 5 5 6 5 6 8 9 8 9 10 10 11 10 8 5 5 6 6 6 6 7 6 6
Wind_Direction
208 201 199 194 184 174 159 179 210 201 166 144 153 136 113 62 64 128 269 332 327 300 294 283 276 278 271 271 273 277 270 261 271 286 289 300 298 299 303 296 293 291 293
198 188 190 188 173 175 183 203 197 194 183 175 161 150 179 240 222 259 284 290 277 285 286 283 279 279 277 275 270 267 263 262 266 284 296 299 293 292 295 296 298 298 291
181 181 183 181 180 195 206 209 198 196 184 162 151 186 209 204 253 275 267 275 271 274 281 278 280 283 284 283 279 273 271 276 271 278 289 295 293 296 299 297 294 293 296
177 180 188 195 195 206 209 201 201 197 181 182 191 211 212 202 257 286 282 276 275 275 275 276 276 269 268 272 275 275 281 284 283 281 285 292 294 297 300 304 306 304 299
176 184 198 199 197 191 194 198 201 201 221 214 209 236 250 244 267 269 271 271 271 278 281 278 278 277 278 277 278 278 276 273 279 281 286 292 295 305 306 306 303 307 298
173 185 178 164 166 178 204 199 194 221 254 227 242 254 279 281 299 283 276 277 281 281 285 283 282 276 283 282 282 283 279 273 275 275 279 283 290 296 302 304 305 307 302
177 181 173 173 178 191 203 199 212 229 268 272 274 271 273 292 306 305 296 283 282 279 279 282 287 289 277 276 282 283 281 278 275 274 275 278 286 295 299 297 294 289 285
179 190 184 178 190 193 194 219 229 233 242 254 273 269 272 292 305 305 304 280 275 276 276 274 277 285 281 282 287 286 281 279 278 272 271 278 282 288 284 286 291 291 285
193 201 198 186 189 193 215 232 232 224 235 251 260 262 267 283 295 298 297 286 281 282 283 283 281 283 290 293 289 285 289 290 288 281 282 285 289 294 299 300 298 298 297
209 207 193 182 188 206 222 227 230 230 243 256 267 261 264 276 294 295 291 277 282 286 288 284 282 287 295 293 282 281 285 290 295 296 290 288 287 288 293 279 277 283 292
197 184 181 185 201 210 215 214 217 229 253 261 273 278 270 273 288 291 292 274 273 282 284 286 286 291 290 290 289 279 285 300 297 288 289 289 288 284 283 277 269 264 271
161 175 191 198 209 202 203 212 205 208 237 258 272 281 278 280 285 291 292 281 278 268 275 284 291 298 295 293 292 294 298 301 296 293 289 287 288 288 287 283 278 271 264
169 194 199 194 200 203 203 208 215 216 231 256 262 273 284 284 282 285 287 289 286 275 279 290 297 300 301 296 294 299 298 289 285 285 285 285 287 289 291 290 286 283 279
187 201 194 193 204 211 217 214 215 219 228 245 256 265 276 281 274 281 279 284 288 284 286 295 300 301 300 301 300 294 283 278 277 277 283 287 292 292 288 289 291 297 295
190 199 199 199 209 218 226 231 229 232 229 234 240 242 258 268 276 291 295 284 287 286 307 302 297 300 298 296 294 289 288 287 280 280 284 289 291 290 289 293 288 293 286
191 203 209 209 216 221 236 267 258 252 266 265 267 268 268 278 295 290 287 288 291 298 300 280 280 281 282 286 287 287 280 278 281 285 285 284 286 287 290 291 288 284 286
199 205 206 206 212 222 228 242 275 281 267 269 274 278 277 285 290 292 294 293 290 293 264 266 269 273 277 278 277 277 278 278 279 278 278 279 282 285 285 286 287 287 286
202 205 208 214 215 221 229 238 246 264 285 283 278 277 282 288 292 295 298 300 285 276 258 263 268 271 274 276 277 278 280 282 277 276 276 276 275 280 282 281 280 282 287
200 206 209 214 215 221 227 234 244 252 260 274 286 285 282 290 292 291 295 262 264 269 268 267 267 270 272 274 274 275 276 277 278 276 274 273 273 274 277 278 279 281 283
204 207 205 211 213 218 224 231 241 250 256 261 265 271 277 274 273 281 267 255 258 264 267 269 271 270 271 271 273 274 275 274 275 273 273 273 272 271 274 277 277 281 281
198 200 200 211 220 223 225 230 237 243 251 258 261 264 274 255 258 264 263 258 256 261 266 271 274 275 274 273 273 274 274 273 272 273 274 273 273 275 274 274 275 277 282
196 201 204 214 223 228 233 233 235 240 246 254 265 271 274 264 259 261 261 261 259 259 261 266 270 268 266 266 270 274 275 275 276 276 278 277 275 276 277 275 276 280 281
202 212 219 224 225 234 239 238 238 243 248 251 258 263 260 256 258 261 265 267 268 268 267 264 269 272 270 267 265 264 267 268 269 270 273 274 274 274 273 271 273 280 282
206 214 223 230 232 233 239 244 245 248 250 253 254 255 257 258 262 265 269 272 273 272 269 267 268 271 273 276 275 270 268 272 271 266 264 268 271 273 272 270 271 273 276
212 219 225 230 233 236 242 246 247 247 249 252 254 257 259 261 264 267 268 270 273 275 276 274 274 276 275 275 276 276 277 280 278 271 265 263 266 267 269 269 273 280 282
219 225 232 235 238 239 242 248 251 252 253 255 255 257 260 263 267 270 271 271 275 279 280 278 275 278 281 280 279 283 285 285 285 277 269 265 267 270 274 275 276 279 283